Starlink 32610

operational
NORAD ID: 61971 Int'l Des: 2024-210 Owner: SPXS Country: US Constellation: starlink
LEOCIRCULAR

About Starlink 32610

Description loading...

Live Position

Loading 3D Globe...

Upcoming Passes

Altitude History

Altitude vs Time

uPlot chart will show altitude changes over time

Two-Line Element Set

1 61971U 24210N 25348.92460759 .00014990 00000-0 55337-3 0 9996
2 61971 43.0015 298.7566 0001091 264.8938 95.1789 15.27566525 61957
Epoch: Dec 14, 2025 • Age: 18 hours

Current Status

Altitude 486.1 km
Velocity 7.63 km/s
Sub-Earth Point 39.45°N, 89.58°E
Launch Date Nov 14, 2024
Age 1 years
Type internet

Technical Details

Classification Payload
Mass 730.00 kg
Dry Mass 700.00 kg
Total Mass 730.00 kg
Length 0.30 m
Diameter 4.10 m
Span 29.00 m
Shape Box + pan
Manufacturer SPXS
Bus Type Starlink V2M
Phase Status In Orbit
Owner/State SPXS/US

Large Constellations

Loading constellations...